TimeCDT,TemperatureF,Dew PointF,Humidity,Sea Level PressureIn,VisibilityMPH,Wind Direction,Wind SpeedMPH,Gust SpeedMPH,PrecipitationIn,Events,Conditions,WindDirDegrees,DateUTC
12:15 AM,60.8,53.6,77,30.15,10.0,NNE,4.6,-,N/A,,Scattered Clouds,30,2013-07-02 05:15:00
12:35 AM,60.8,53.6,77,30.15,10.0,NNE,3.5,-,N/A,,Scattered Clouds,20,2013-07-02 05:35:00
12:55 AM,62.6,53.6,72,30.15,10.0,Calm,Calm,-,N/A,,Clear,0,2013-07-02 05:55:00
1:15 AM,62.6,53.6,72,30.15,10.0,Calm,Calm,-,N/A,,Scattered Clouds,0,2013-07-02 06:15:00
1:35 AM,60.8,53.6,77,30.15,10.0,Calm,Calm,-,N/A,,Scattered Clouds,0,2013-07-02 06:35:00
1:55 AM,60.8,53.6,77,30.16,10.0,Calm,Calm,-,N/A,,Clear,0,2013-07-02 06:55:00
2:15 AM,60.8,53.6,77,30.15,10.0,Calm,Calm,-,N/A,,Scattered Clouds,0,2013-07-02 07:15:00
2:35 AM,57.2,51.8,82,30.16,10.0,Calm,Calm,-,N/A,,Scattered Clouds,0,2013-07-02 07:35:00
2:55 AM,57.2,51.8,82,30.15,10.0,Calm,Calm,-,N/A,,Scattered Clouds,0,2013-07-02 07:55:00
3:15 AM,55.4,51.8,88,30.15,10.0,Calm,Calm,-,N/A,,Scattered Clouds,0,2013-07-02 08:15:00
3:35 AM,55.4,51.8,88,30.15,10.0,Calm,Calm,-,N/A,,Scattered Clouds,0,2013-07-02 08:35:00
3:55 AM,55.4,50.0,82,30.15,10.0,Calm,Calm,-,N/A,,Scattered Clouds,0,2013-07-02 08:55:00
4:15 AM,55.4,51.8,88,30.15,10.0,Calm,Calm,-,N/A,,Scattered Clouds,0,2013-07-02 09:15:00
4:35 AM,55.4,50.0,82,30.15,7.0,Calm,Calm,-,N/A,,Scattered Clouds,0,2013-07-02 09:35:00
4:55 AM,55.4,51.8,88,30.16,10.0,Calm,Calm,-,N/A,,Scattered Clouds,0,2013-07-02 09:55:00
5:15 AM,53.6,48.2,82,30.16,7.0,Calm,Calm,-,N/A,,Scattered Clouds,0,2013-07-02 10:15:00
5:35 AM,53.6,50.0,88,30.16,7.0,Calm,Calm,-,N/A,,Scattered Clouds,0,2013-07-02 10:35:00
5:55 AM,53.6,48.2,82,30.17,7.0,Calm,Calm,-,N/A,,Scattered Clouds,0,2013-07-02 10:55:00
6:15 AM,53.6,48.2,82,30.17,10.0,Calm,Calm,-,N/A,,Clear,0,2013-07-02 11:15:00
6:35 AM,53.6,48.2,82,30.18,7.0,Calm,Calm,-,N/A,,Clear,0,2013-07-02 11:35:00
6:55 AM,55.4,50.0,82,30.18,7.0,Calm,Calm,-,N/A,,Clear,0,2013-07-02 11:55:00
7:15 AM,57.2,51.8,82,30.18,7.0,Calm,Calm,-,N/A,,Clear,0,2013-07-02 12:15:00
7:35 AM,59.0,53.6,82,30.18,10.0,Calm,Calm,-,N/A,,Clear,0,2013-07-02 12:35:00
7:55 AM,60.8,53.6,77,30.18,10.0,Calm,Calm,-,N/A,,Clear,0,2013-07-02 12:55:00
8:15 AM,62.6,55.4,77,30.18,10.0,Calm,Calm,-,N/A,,Clear,0,2013-07-02 13:15:00
8:35 AM,64.4,57.2,77,30.18,10.0,Calm,Calm,-,N/A,,Clear,0,2013-07-02 13:35:00
9:15 AM,69.8,55.4,60,30.17,10.0,Calm,Calm,-,N/A,,Clear,0,2013-07-02 14:15:00
9:35 AM,69.8,57.2,64,30.17,10.0,Calm,Calm,-,N/A,,Clear,0,2013-07-02 14:35:00
9:55 AM,71.6,55.4,57,30.17,10.0,Calm,Calm,-,N/A,,Scattered Clouds,0,2013-07-02 14:55:00
10:15 AM,73.4,55.4,53,30.17,10.0,WNW,3.5,-,N/A,,Clear,290,2013-07-02 15:15:00
10:35 AM,75.2,53.6,47,30.17,10.0,West,4.6,-,N/A,,Clear,280,2013-07-02 15:35:00
10:55 AM,75.2,53.6,47,30.17,10.0,Calm,Calm,-,N/A,,Clear,0,2013-07-02 15:55:00
11:15 AM,77.0,51.8,41,30.17,10.0,NNW,4.6,-,N/A,,Clear,340,2013-07-02 16:15:00
11:35 AM,78.8,50.0,36,30.17,10.0,WNW,3.5,-,N/A,,Clear,300,2013-07-02 16:35:00
11:55 AM,78.8,50.0,36,30.16,10.0,Calm,Calm,-,N/A,,Clear,0,2013-07-02 16:55:00
12:15 PM,78.8,48.2,34,30.16,10.0,Calm,Calm,-,N/A,,Clear,0,2013-07-02 17:15:00
12:35 PM,78.8,51.8,39,30.16,10.0,WSW,4.6,-,N/A,,Clear,250,2013-07-02 17:35:00
12:55 PM,78.8,50.0,36,30.16,10.0,NNW,4.6,-,N/A,,Clear,330,2013-07-02 17:55:00
1:15 PM,80.6,46.4,30,30.15,10.0,West,3.5,-,N/A,,Clear,280,2013-07-02 18:15:00
1:35 PM,80.6,48.2,32,30.15,10.0,NW,4.6,-,N/A,,Clear,310,2013-07-02 18:35:00
1:55 PM,80.6,46.4,30,30.14,10.0,Calm,Calm,-,N/A,,Clear,0,2013-07-02 18:55:00
2:15 PM,80.6,50.0,34,30.14,10.0,Calm,Calm,-,N/A,,Clear,0,2013-07-02 19:15:00
2:35 PM,80.6,50.0,34,30.13,10.0,Calm,Calm,-,N/A,,Clear,0,2013-07-02 19:35:00
2:55 PM,80.6,50.0,34,30.12,10.0,NW,3.5,-,N/A,,Clear,320,2013-07-02 19:55:00
3:15 PM,82.4,48.2,30,30.11,10.0,North,3.5,-,N/A,,Clear,350,2013-07-02 20:15:00
3:35 PM,80.6,48.2,32,30.11,10.0,Calm,Calm,-,N/A,,Clear,0,2013-07-02 20:35:00
3:55 PM,80.6,53.6,39,30.10,10.0,WNW,4.6,-,N/A,,Clear,300,2013-07-02 20:55:00
4:15 PM,80.6,51.8,37,30.10,10.0,WSW,5.8,-,N/A,,Clear,250,2013-07-02 21:15:00
4:35 PM,82.4,51.8,35,30.09,10.0,West,3.5,-,N/A,,Clear,260,2013-07-02 21:35:00
4:55 PM,82.4,48.2,30,30.09,10.0,WNW,3.5,-,N/A,,Clear,300,2013-07-02 21:55:00
5:15 PM,82.4,50.0,32,30.09,10.0,WNW,4.6,-,N/A,,Clear,290,2013-07-02 22:15:00
5:35 PM,82.4,51.8,35,30.09,10.0,NW,4.6,-,N/A,,Clear,310,2013-07-02 22:35:00
5:55 PM,77.0,48.2,36,30.08,7.0,Calm,Calm,-,N/A,Rain,Light Rain,0,2013-07-02 22:55:00
6:15 PM,73.4,57.2,57,30.09,10.0,WNW,9.2,21.9,N/A,,Scattered Clouds,300,2013-07-02 23:15:00
6:35 PM,71.6,55.4,57,30.09,10.0,WNW,8.1,-,N/A,,Clear,290,2013-07-02 23:35:00
6:55 PM,73.4,55.4,53,30.09,10.0,NW,4.6,-,N/A,,Scattered Clouds,320,2013-07-02 23:55:00
7:15 PM,73.4,57.2,57,30.08,10.0,Calm,Calm,-,N/A,,Clear,0,2013-07-03 00:15:00
7:35 PM,75.2,60.8,61,30.07,10.0,Calm,Calm,-,N/A,,Clear,0,2013-07-03 00:35:00
7:55 PM,73.4,60.8,65,30.07,10.0,Calm,Calm,-,N/A,,Clear,0,2013-07-03 00:55:00
8:15 PM,69.8,62.6,78,30.08,10.0,Calm,Calm,-,N/A,,Clear,0,2013-07-03 01:15:00
8:35 PM,69.8,62.6,78,30.08,10.0,Calm,Calm,-,N/A,,Clear,0,2013-07-03 01:35:00
8:55 PM,69.8,62.6,78,30.08,10.0,Calm,Calm,-,N/A,,Clear,0,2013-07-03 01:55:00
9:15 PM,69.8,60.8,73,30.08,10.0,Calm,Calm,-,N/A,,Scattered Clouds,0,2013-07-03 02:15:00
9:35 PM,69.8,59.0,68,30.08,10.0,Calm,Calm,-,N/A,,Clear,0,2013-07-03 02:35:00
9:55 PM,69.8,60.8,73,30.08,10.0,Calm,Calm,-,N/A,,Clear,0,2013-07-03 02:55:00
10:15 PM,66.2,59.0,78,30.08,10.0,Calm,Calm,-,N/A,,Scattered Clouds,0,2013-07-03 03:15:00
10:35 PM,64.4,59.0,83,30.08,10.0,Calm,Calm,-,N/A,,Clear,0,2013-07-03 03:35:00
10:55 PM,64.4,57.2,77,30.08,10.0,Calm,Calm,-,N/A,,Scattered Clouds,0,2013-07-03 03:55:00
11:15 PM,62.6,57.2,82,30.09,10.0,Calm,Calm,-,N/A,,Scattered Clouds,0,2013-07-03 04:15:00
11:35 PM,62.6,57.2,82,30.08,10.0,Calm,Calm,-,N/A,,Scattered Clouds,0,2013-07-03 04:35:00
11:55 PM,62.6,55.4,77,30.09,10.0,Calm,Calm,-,N/A,,Scattered Clouds,0,2013-07-03 04:55:00